GW0392 Weather Reports


Display with metric or nautical units.
time (UTC)temp
F
wind
direction
speed
MPH
gust
MPH
rain 1hr
in
rain 24hr
in
rain mn
in
humidity
%
barometer
mb
20260504200933 77 217 4.0 5.0 0.00 0.00 0.00 44 1013.3
20260504200429 78 213 2.0 3.0 0.00 0.00 0.00 45 1013.4
20260504195926 78 229 1.0 6.0 0.00 0.00 0.00 43 1013.5
20260504195422 78 216 1.0 3.0 0.00 0.00 0.00 45 1013.5
20260504194919 78 215 1.0 7.0 0.00 0.00 0.00 45 1013.4
20260504194414 78 216 0.0 2.0 0.00 0.00 0.00 45 1013.5
20260504193911 77 189 1.0 2.0 0.00 0.00 0.00 46 1013.6
20260504193408 77 224 0.0 3.0 0.00 0.00 0.00 46 1013.7
20260504192907 77 234 0.0 3.0 0.00 0.00 0.00 45 1013.9
20260504192404 78 222 1.0 5.0 0.00 0.00 0.00 48 1013.9
20260504191902 77 214 3.0 6.0 0.00 0.00 0.00 46 1013.8
20260504191400 77 186 4.0 7.0 0.00 0.00 0.00 45 1014.2
20260504190855 78 131 1.0 3.0 0.00 0.00 0.00 46 1014.3
20260504190351 78 195 4.0 6.0 0.00 0.00 0.00 47 1014.4
20260504185848 77 227 0.0 2.0 0.00 0.00 0.00 50 1014.3
20260504185345 77 251 1.0 2.0 0.00 0.00 0.00 48 1014.5
20260504184841 76 227 0.0 5.0 0.00 0.00 0.00 48 1014.7
20260504184337 77 195 3.0 3.0 0.00 0.00 0.00 46 1014.8
20260504183833 77 199 1.0 2.0 0.00 0.00 0.00 48 1014.8
20260504183331 77 233 0.0 0.0 0.00 0.00 0.00 47 1014.6
20260504182828 76 271 2.0 3.0 0.00 0.00 0.00 49 1014.6
20260504182325 77 220 1.0 2.0 0.00 0.00 0.00 47 1014.6
20260504181822 76 231 0.0 1.0 0.00 0.00 0.00 50 1014.8
20260504181320 76 226 0.0 1.0 0.00 0.00 0.00 48 1014.7
20260504180819 76 241 1.0 1.0 0.00 0.00 0.00 48 1014.7
20260504180316 76 219 1.0 8.0 0.00 0.00 0.00 49 1015.1
20260504175814 76 235 0.0 1.0 0.00 0.00 0.00 49 1015.0
20260504175311 76 234 0.0 2.0 0.00 0.00 0.00 48 1015.2
20260504174809 76 229 0.0 2.0 0.00 0.00 0.00 46 1015.3
20260504174306 77 238 1.0 2.0 0.00 0.00 0.00 46 1015.3
20260504173803 77 222 2.0 3.0 0.00 0.00 0.00 45 1015.3
20260504173259 77 224 0.0 1.0 0.00 0.00 0.00 46 1015.3
20260504172756 77 228 0.0 3.0 0.00 0.00 0.00 45 1015.3
20260504172253 76 231 0.0 1.0 0.00 0.00 0.00 48 1015.4
20260504171749 76 239 0.0 2.0 0.00 0.00 0.00 49 1015.6
20260504171246 76 227 0.0 1.0 0.00 0.00 0.00 46 1015.6
20260504170743 75 240 1.0 2.0 0.00 0.00 0.00 49 1015.8
20260504170241 75 229 0.0 1.0 0.00 0.00 0.00 49 1015.8
20260504160159 71 202 3.0 5.0 0.00 0.00 0.00 52 1016.6
20260504151127 67 220 0.0 2.0 0.00 0.00 0.00 56 1017.3
20260504150624 67 190 2.0 5.0 0.00 0.00 0.00 55 1017.4
20260504150121 67 151 1.0 2.0 0.00 0.00 0.00 55 1017.5
20260504141049 62 224 1.0 2.0 0.00 0.00 0.00 61 1018.0
20260504140546 62 208 2.0 2.0 0.00 0.00 0.00 60 1018.1
20260504130510 51 225 0.0 0.0 0.00 0.00 0.00 88 1018.2
20260504110358 43 227 0.0 0.0 0.00 0.00 0.00 99 1017.7
20260504100315 43 227 0.0 0.0 0.00 0.00 0.00 98 1017.5
20260504081708 45 226 0.0 0.0 0.00 0.00 0.00 94 1017.2
20260504081205 45 226 0.0 0.0 0.00 0.00 0.00 94 1017.3
20260504080701 45 226 0.0 0.0 0.00 0.00 0.00 95 1017.4
20260504080157 45 226 0.0 0.0 0.00 0.00 0.00 95 1017.1
20260504070125 45 223 0.0 0.0 0.00 0.00 0.00 92 1017.3
20260504050514 48 226 0.0 0.0 0.00 0.00 0.00 88 1018.1
20260504050011 48 226 0.0 0.0 0.00 0.00 0.00 87 1018.1
20260504045508 48 227 0.0 0.0 0.00 0.00 0.00 87 1017.9
20260504045003 48 227 0.0 0.0 0.00 0.00 0.00 87 1018.1
20260504044501 48 227 0.0 0.0 0.00 0.00 0.00 87 1017.9
20260504043958 48 227 0.0 0.0 0.00 0.00 0.00 86 1017.9
20260504043455 48 227 0.0 0.0 0.00 0.00 0.00 86 1018.0
20260504042952 48 226 0.0 0.0 0.00 0.00 0.00 85 1018.1
20260504042448 49 227 0.0 0.0 0.00 0.00 0.00 85 1017.9
20260504041945 49 226 0.0 0.0 0.00 0.00 0.00 84 1018.0
20260504041441 50 227 0.0 0.0 0.00 0.00 0.00 84 1018.1
20260504040937 50 227 0.0 0.0 0.00 0.00 0.00 84 1018.2
20260504040436 50 227 0.0 0.0 0.00 0.00 0.00 83 1018.0
20260504035931 50 226 0.0 0.0 0.00 0.00 0.00 82 1018.2
20260504035429 50 227 0.0 0.0 0.00 0.00 0.00 83 1018.1
20260504034925 50 226 0.0 0.0 0.00 0.00 0.00 82 1018.1
20260504034423 50 227 0.0 0.0 0.00 0.00 0.00 83 1017.9
20260504033920 50 226 0.0 0.0 0.00 0.00 0.00 82 1018.3
20260504033418 50 227 0.0 0.0 0.00 0.00 0.00 82 1018.1
20260504032914 50 227 0.0 0.0 0.00 0.00 0.00 80 1018.0
20260504032411 50 226 0.0 0.0 0.00 0.00 0.00 81 1017.9
20260504031908 50 226 0.0 0.0 0.00 0.00 0.00 81 1018.0
20260504031405 51 226 0.0 0.0 0.00 0.00 0.00 81 1017.9
20260504030901 51 226 0.0 0.0 0.00 0.00 0.00 80 1018.2
20260504030359 51 227 0.0 0.0 0.00 0.00 0.00 81 1018.0
20260504025854 51 227 0.0 0.0 0.00 0.00 0.00 80 1017.9
20260504025352 51 227 0.0 0.0 0.00 0.00 0.00 79 1017.9
20260504024848 52 225 0.0 0.0 0.00 0.00 0.00 78 1017.8
20260504024345 52 226 0.0 0.0 0.00 0.00 0.00 79 1017.8
20260504023842 52 226 0.0 0.0 0.00 0.00 0.00 77 1017.4
20260504023339 52 226 0.0 0.0 0.00 0.00 0.00 77 1017.4
20260504022834 52 221 0.0 0.0 0.00 0.00 0.00 76 1017.4
20260504022331 53 215 0.0 0.0 0.00 0.00 0.00 75 1017.5
20260504021828 53 222 0.0 0.0 0.00 0.00 0.00 76 1017.7
20260504021325 53 221 0.0 0.0 0.00 0.00 0.00 77 1017.2
20260504020822 53 221 0.0 0.0 0.00 0.00 0.00 78 1017.4
20260504020319 53 222 0.0 0.0 0.00 0.00 0.00 77 1017.7
20260504015815 53 222 0.0 0.0 0.00 0.00 0.00 77 1017.3
20260504015311 53 222 0.0 0.0 0.00 0.00 0.00 77 1017.3
20260504014808 53 222 0.0 0.0 0.00 0.00 0.00 79 1017.3
20260504014303 53 222 0.0 0.0 0.00 0.00 0.00 78 1017.3
20260504013801 53 222 0.0 0.0 0.00 0.00 0.00 78 1017.3
20260504013259 54 222 0.0 0.0 0.00 0.00 0.00 76 1017.1
20260504012755 54 222 0.0 0.0 0.00 0.00 0.00 76 1017.2
20260504012253 54 223 0.0 0.0 0.00 0.00 0.00 75 1017.1
20260504011750 55 223 0.0 0.0 0.00 0.00 0.00 74 1017.1
20260504011247 55 223 0.0 0.0 0.00 0.00 0.00 73 1017.0
20260504010743 55 223 0.0 0.0 0.00 0.00 0.00 73 1016.7
20260504010238 56 223 0.0 0.0 0.00 0.00 0.00 71 1016.7
20260504005735 56 223 0.0 0.0 0.00 0.00 0.00 70 1016.9
20260504005232 57 223 0.0 0.0 0.00 0.00 0.00 69 1016.9
20260504004730 57 223 0.0 0.0 0.00 0.00 0.00 69 1016.8
20260504004227 57 223 0.0 0.0 0.00 0.00 0.00 69 1016.6
20260504003723 58 226 0.0 0.0 0.00 0.00 0.00 67 1016.7
20260504003221 59 223 0.0 0.0 0.00 0.00 0.00 67 1016.7
20260504002717 60 230 0.0 0.0 0.00 0.00 0.00 63 1016.5
20260504002214 60 230 0.0 0.0 0.00 0.00 0.00 60 1016.6
20260504001712 61 230 0.0 0.0 0.00 0.00 0.00 61 1016.6
20260504001209 61 230 0.0 0.0 0.00 0.00 0.00 57 1016.9
20260504000705 62 230 0.0 0.0 0.00 0.00 0.00 57 1016.8
20260504000204 63 230 0.0 0.0 0.00 0.00 0.00 54 1016.8
20260503235701 63 231 0.0 0.0 0.00 0.00 0.00 52 1016.7
20260503235157 64 230 0.0 0.0 0.00 0.00 0.00 52 1016.8
20260503234655 64 231 0.0 0.0 0.00 0.00 0.00 52 1016.7
20260503234153 65 229 0.0 0.0 0.00 0.00 0.00 52 1016.7
20260503233649 66 222 1.0 2.0 0.00 0.00 0.00 45 1016.8
20260503233145 66 220 0.0 0.0 0.00 0.00 0.00 46 1016.5
20260503232642 67 223 0.0 0.0 0.00 0.00 0.00 45 1016.6
20260503232140 67 223 0.0 0.0 0.00 0.00 0.00 45 1016.5
20260503231638 67 215 1.0 2.0 0.00 0.00 0.00 44 1016.7
20260503231134 67 225 0.0 1.0 0.00 0.00 0.00 45 1016.7
20260503230631 67 216 0.0 5.0 0.00 0.00 0.00 44 1016.7
20260503230128 67 221 0.0 1.0 0.00 0.00 0.00 44 1016.7
20260503225626 67 197 1.0 2.0 0.00 0.00 0.00 42 1016.9
20260503225125 68 200 3.0 3.0 0.00 0.00 0.00 43 1016.9
20260503224623 68 227 0.0 2.0 0.00 0.00 0.00 43 1016.7
20260503224121 68 196 1.0 2.0 0.00 0.00 0.00 43 1016.8
20260503223618 67 220 1.0 2.0 0.00 0.00 0.00 44 1017.0
20260503223114 68 225 0.0 1.0 0.00 0.00 0.00 43 1016.7
20260503222612 68 181 0.0 1.0 0.00 0.00 0.00 42 1016.9
20260503222109 68 233 0.0 0.0 0.00 0.00 0.00 43 1017.1
20260503221608 68 220 0.0 1.0 0.00 0.00 0.00 44 1017.0
20260503221105 68 233 1.0 2.0 0.00 0.00 0.00 43 1017.2
20260503220601 68 231 0.0 0.0 0.00 0.00 0.00 44 1017.3
20260503220058 68 209 2.0 2.0 0.00 0.00 0.00 42 1017.1
20260503215555 68 219 0.0 2.0 0.00 0.00 0.00 42 1017.0
20260503215052 68 231 0.0 1.0 0.00 0.00 0.00 42 1016.9
20260503214550 68 236 1.0 1.0 0.00 0.00 0.00 43 1016.9
20260503214046 68 216 1.0 3.0 0.00 0.00 0.00 42 1017.1
20260503213545 68 226 1.0 1.0 0.00 0.00 0.00 42 1017.3
20260503213041 68 144 3.0 7.0 0.00 0.00 0.00 40 1017.4
20260503212538 68 194 3.0 3.0 0.00 0.00 0.00 42 1017.3
20260503212036 68 224 0.0 0.0 0.00 0.00 0.00 43 1017.3
20260503211533 68 216 1.0 2.0 0.00 0.00 0.00 41 1017.4
20260503211028 67 181 2.0 5.0 0.00 0.00 0.00 41 1017.7
20260503210525 68 167 2.0 6.0 0.00 0.00 0.00 40 1017.8
20260503210021 68 220 0.0 1.0 0.00 0.00 0.00 43 1017.7
20260503205518 68 227 1.0 2.0 0.00 0.00 0.00 43 1018.1
20260503205014 67 192 2.0 7.0 0.00 0.00 0.00 42 1017.8
20260503204512 67 198 2.0 6.0 0.00 0.00 0.00 43 1018.1
20260503204008 67 220 1.0 2.0 0.00 0.00 0.00 41 1018.2
20260503203506 68 193 1.0 2.0 0.00 0.00 0.00 41 1018.2
20260503203002 68 219 0.0 5.0 0.00 0.00 0.00 45 1018.2
20260503202500 67 229 0.0 2.0 0.00 0.00 0.00 42 1018.2
20260503201958 68 226 2.0 2.0 0.00 0.00 0.00 43 1018.4
20260503201456 67 193 2.0 5.0 0.00 0.00 0.00 42 1018.5